GW1062 Weather Reports


Display with metric or nautical units.
time (UTC)temp
F
wind
direction
speed
MPH
gust
MPH
rain 1hr
in
rain 24hr
in
rain mn
in
humidity
%
barometer
mb
20260509151501 62 6 8.0 14.0 0.00 0.00 0.00 46 968.5
20260509150002 62 6 3.0 8.0 0.00 0.00 0.00 43 968.1
20260509144600 62 5 4.0 14.0 0.00 0.00 0.00 44 968.4
20260509143059 62 6 4.0 13.0 0.00 0.00 0.00 42 968.2
20260509141557 63 6 11.0 18.0 0.00 0.00 0.00 38 968.3
20260509140101 63 6 8.0 16.0 0.00 0.00 0.00 38 968.2
20260509134554 63 4 9.0 17.0 0.00 0.00 0.00 39 968.0
20260509133055 61 6 7.0 15.0 0.00 0.00 0.00 42 968.0
20260509131552 59 5 11.0 22.0 0.00 0.00 0.00 45 968.3
20260509130103 59 5 8.0 14.0 0.00 0.00 0.00 44 967.1
20260509124553 58 4 5.0 9.0 0.00 0.00 0.00 45 966.6
20260509123051 55 5 2.0 4.0 0.00 0.00 0.00 52 966.5
20260509121546 52 7 2.0 5.0 0.00 0.00 0.00 54 966.4
20260509120045 49 360 1.0 4.0 0.00 0.00 0.00 59 966.2
20260509114553 48 11 2.0 5.0 0.00 0.00 0.00 59 966.2
20260509113053 48 360 3.0 6.0 0.00 0.00 0.00 59 966.3
20260509111544 48 360 3.0 6.0 0.00 0.00 0.00 58 966.1
20260509110047 47 5 2.0 4.0 0.00 0.00 0.00 60 965.9
20260509104542 47 5 3.0 5.0 0.00 0.00 0.00 61 965.9
20260509103045 48 360 2.0 4.0 0.00 0.00 0.00 58 965.9
20260509101556 48 360 1.0 4.0 0.00 0.00 0.00 59 966.0
20260509100039 49 360 1.0 5.0 0.00 0.00 0.00 58 966.1
20260509094539 48 360 3.0 6.0 0.00 0.00 0.00 59 966.3
20260509093036 47 360 2.0 4.0 0.00 0.00 0.00 58 966.2
20260509091532 49 360 2.0 5.0 0.00 0.00 0.00 56 966.2
20260509090036 50 360 1.0 3.0 0.00 0.00 0.00 56 966.3
20260509084527 51 360 0.0 4.0 0.00 0.00 0.00 54 966.3
20260509083035 53 360 2.0 4.0 0.00 0.00 0.00 51 966.2
20260509081524 53 360 2.0 4.0 0.00 0.00 0.00 52 966.0
20260509080024 52 360 0.0 2.0 0.00 0.00 0.00 53 966.0
20260509074521 53 360 1.0 3.0 0.00 0.00 0.00 51 965.9
20260509073025 55 360 1.0 3.0 0.00 0.00 0.00 49 966.0
20260509071515 57 360 1.0 4.0 0.00 0.00 0.00 45 966.1
20260509070013 57 360 1.0 4.0 0.00 0.00 0.00 45 966.0
20260509064511 58 360 2.0 4.0 0.00 0.00 0.00 44 966.0
20260509063019 59 360 2.0 5.0 0.00 0.00 0.00 44 966.1
20260509061505 60 360 2.0 4.0 0.00 0.00 0.00 43 966.1
20260509060111 61 360 1.0 4.0 0.00 0.00 0.00 42 966.1
20260509054608 61 360 2.0 4.0 0.00 0.00 0.00 41 966.0
20260509053128 62 360 2.0 4.0 0.00 0.00 0.00 40 966.0
20260509051555 63 360 0.0 4.0 0.00 0.00 0.00 41 966.1
20260509050051 63 360 3.0 6.0 0.00 0.00 0.00 43 966.2
20260509044626 63 360 1.0 9.0 0.00 0.00 0.00 44 966.2
20260509043127 63 360 1.0 10.0 0.00 0.00 0.00 42 965.7
20260509041550 61 360 4.0 6.0 0.00 0.00 0.00 45 966.0
20260509040049 62 360 1.0 8.0 0.00 0.00 0.00 41 965.7
20260509034550 63 360 5.0 8.0 0.00 0.00 0.00 41 965.4
20260509033047 63 360 2.0 5.0 0.00 0.00 0.00 43 965.5
20260509031556 64 360 1.0 5.0 0.00 0.00 0.00 40 965.5
20260509030106 65 360 0.0 4.0 0.00 0.00 0.00 39 965.3
20260509024545 67 10 1.0 5.0 0.00 0.00 0.00 36 965.3
20260509023045 67 5 3.0 6.0 0.00 0.00 0.00 36 965.0
20260509021545 67 5 2.0 5.0 0.00 0.00 0.00 36 965.2
20260509020044 68 5 4.0 7.0 0.00 0.00 0.00 36 965.3
20260509014543 68 4 3.0 10.0 0.00 0.00 0.00 34 965.0
20260509013043 69 4 5.0 13.0 0.00 0.00 0.00 34 965.4
20260509011542 69 4 4.0 10.0 0.00 0.00 0.00 30 965.2
20260509010041 71 3 9.0 13.0 0.00 0.00 0.00 29 964.9
20260509004552 71 4 7.0 12.0 0.00 0.00 0.00 27 964.9
20260509003049 72 4 2.0 6.0 0.00 0.00 0.00 27 964.9
20260509001538 73 4 10.0 13.0 0.00 0.00 0.00 24 965.0
20260509000038 74 5 6.0 15.0 0.00 0.00 0.00 24 965.0
20260508234538 74 4 9.0 15.0 0.00 0.00 0.00 23 965.0
20260508233037 74 4 5.0 12.0 0.00 0.00 0.00 23 965.2
20260508231534 74 5 8.0 14.0 0.00 0.00 0.00 23 965.4
20260508230032 74 6 7.0 13.0 0.00 0.00 0.00 22 965.4
20260508224538 74 6 4.0 11.0 0.00 0.00 0.00 26 965.5
20260508223042 74 5 4.0 8.0 0.00 0.00 0.00 22 965.6
20260508221529 72 6 3.0 10.0 0.00 0.00 0.00 24 965.6
20260508220027 74 5 7.0 11.0 0.00 0.00 0.00 24 965.8
20260508214525 74 4 10.0 16.0 0.00 0.00 0.00 22 965.9
20260508213025 74 6 5.0 12.0 0.00 0.00 0.00 21 966.0
20260508211521 74 5 5.0 17.0 0.00 0.00 0.00 24 966.2
20260508210027 74 5 8.0 16.0 0.00 0.00 0.00 22 966.3
20260508204518 73 4 3.0 13.0 0.00 0.00 0.00 22 966.6
20260508203017 74 5 8.0 16.0 0.00 0.00 0.00 23 966.9
20260508201517 73 4 7.0 18.0 0.00 0.00 0.00 23 967.2
20260508200016 72 6 8.0 17.0 0.00 0.00 0.00 23 967.4
20260508194508 72 4 1.0 19.0 0.00 0.00 0.00 24 967.7
20260508193006 71 6 6.0 14.0 0.00 0.00 0.00 26 967.8
20260508191503 72 6 0.0 10.0 0.00 0.00 0.00 25 968.0
20260508190003 72 4 6.0 12.0 0.00 0.00 0.00 23 968.1
20260508184601 71 5 7.0 16.0 0.00 0.00 0.00 23 968.3
20260508183058 71 4 2.0 10.0 0.00 0.00 0.00 25 968.3
20260508181558 71 6 1.0 13.0 0.00 0.00 0.00 27 968.5
20260508180054 70 5 7.0 14.0 0.00 0.00 0.00 25 968.7
20260508174556 69 360 2.0 8.0 0.00 0.00 0.00 26 968.9
20260508173049 69 6 6.0 13.0 0.00 0.00 0.00 27 969.2
20260508171547 69 4 4.0 13.0 0.00 0.00 0.00 25 969.4
20260508170046 68 4 1.0 8.0 0.00 0.00 0.00 26 969.6
20260508164542 68 6 6.0 11.0 0.00 0.00 0.00 26 969.7
20260508163040 68 6 3.0 12.0 0.00 0.00 0.00 28 969.8
20260508161538 67 3 4.0 12.0 0.00 0.00 0.00 28 969.9
20260508160036 67 5 6.0 11.0 0.00 0.00 0.00 30 970.1
20260508154534 67 4 0.0 10.0 0.00 0.00 0.00 30 970.2
20260508153038 66 6 2.0 8.0 0.00 0.00 0.00 34 970.2